This is the latest recevied weather packets stored in our database for station/object DK4ARL. If no packets are shown the sender has not sent any weather packets the latest 10 day(s).
| Time | Temp. | Humidity | Pressure | Rain* | Wind** | Luminosity | Snow |
|---|---|---|---|---|---|---|---|
| 1777958586 | 15° C | - | 973.2 hPa | 0 mm | - | - | - |
| 1777957705 | 15.56° C | - | 973.2 hPa | 0 mm | - | - | - |
| 1777956825 | 12.78° C | - | 973.3 hPa | 0 mm | - | - | - |
| 1777955946 | 12.78° C | - | 973.3 hPa | 0 mm | - | - | - |
| 1777955068 | 11.67° C | - | 973.3 hPa | 0 mm | - | - | - |
| 1777953309 | 12.22° C | - | 973.4 hPa | 0 mm | - | - | - |
| 1777951549 | 12.78° C | - | 973.7 hPa | 0 mm | - | - | - |
| 1777950668 | 12.78° C | - | 973.8 hPa | 0 mm | - | - | - |
| 1777949787 | 13.33° C | - | 974 hPa | 0 mm | - | - | - |
| 1777948905 | 13.33° C | - | 974.1 hPa | 0 mm | - | - | - |
| 1777948024 | 13.33° C | - | 974.3 hPa | 0 mm | - | - | - |
| 1777947142 | 13.33° C | - | 974.4 hPa | 0 mm | - | - | - |
| 1777946260 | 13.33° C | - | 974.5 hPa | 0 mm | - | - | - |
| 1777945377 | 13.33° C | - | 974.6 hPa | 0 mm | - | - | - |
| 1777944495 | 13.89° C | - | 974.7 hPa | 0 mm | - | - | - |
| 1777943612 | 13.89° C | - | 974.7 hPa | 0 mm | - | - | - |
| 1777942739 | 13.89° C | - | 974.7 hPa | 0 mm | - | - | - |
| 1777941856 | 14.44° C | - | 974.8 hPa | 0 mm | - | - | - |
| 1777940972 | 13.89° C | - | 974.9 hPa | 0 mm | - | - | - |
| 1777939205 | 14.44° C | - | 975.2 hPa | 0 mm | - | - | - |
| 1777938321 | 14.44° C | - | 975.3 hPa | 0 mm | - | - | - |
| 1777937437 | 14.44° C | - | 975.4 hPa | 0 mm | - | - | - |
| 1777934783 | 15° C | - | 975.5 hPa | 0 mm | - | - | - |
| 1777933898 | 15° C | - | 975.6 hPa | 0 mm | - | - | - |
| 1777933011 | 15.56° C | - | 975.6 hPa | 0 mm | - | - | - |
* Rain latest hour (hover to see other rain measurements)
** Current wind speed in m/s (hover to see current wind gust speed)